Flag for Montenegro Weather past 2 weeks in Podgorica, Montenegro

Now
66 °F

Passing clouds.


Feels Like: 66 °F
Forecast: 61 / 83 °F
Wind: 5 mph from North

Location: Podgorica Titograd

Current Time: Sep 18, 2014 at 2:41:55 AM

Latest Report: Sep 18, 2014 at 2:00 AM


Visibility: N/A

Pressure: 29.98 "Hg

Humidity: 73%

Dew point: 57 °F

Location of PodgoricaLocation

Historic Weather in Podgorica — Graph

°F

Podgorica temperature yesterday

Maximum temperature yesterday: 81 °F (at 3:30 PM)
Minimum temperature yesterday: 61 °F (at 6:30 AM)
Average temperature yesterday: 71 °F

Past Weeks' High & Low Weather Summary

 TemperatureHumidityPressure
High86 °F (Sep 7, 3:30 PM)100% (Sep 3, 2:00 AM)30.01 "Hg (Sep 3, 2:00 AM)
Low57 °F (Sep 15, 5:00 AM)37% (Sep 9, 4:30 PM)29.65 "Hg (Sep 3, 1:00 AM)
Average70 °F79%29.89 "Hg
* Reported Sep 3 1:00 AM — Sep 18 1:30 AM, Podgorica, Weather by CustomWeather, © 2014

Note: Actual official high and low records may vary slightly from our data, if they occured in-between our weather recording intervals... More about our weather records

Advertising

Podgorica weather history for previous 24 hours

 ConditionsComfort  
Time TempWeatherWind HumidityBarometerVisibility
1:30 AM
Sep 18
64 °FPassing clouds.No wind78%29.98 "HgN/A
1:00 AM66 °FPassing clouds.3 mph78%29.98 "HgN/A
12:30 AM66 °FPassing clouds.No wind78%29.98 "HgN/A
12:00 AM66 °FPassing clouds.No wind73%29.98 "HgN/A
11:30 PM
Sep 17
68 °FPassing clouds.1 mph64%29.98 "HgN/A
11:00 PM68 °FPassing clouds.5 mph69%29.98 "HgN/A
10:30 PM68 °FPassing clouds.3 mph73%29.98 "HgN/A
10:00 PM68 °FPassing clouds.5 mph78%29.98 "HgN/A
9:30 PM68 °FPassing clouds.3 mph83%29.95 "HgN/A
9:00 PM70 °FPassing clouds.2 mph78%29.95 "HgN/A
8:30 PM70 °FPassing clouds.3 mph78%29.95 "HgN/A
8:00 PM70 °FPassing clouds.1 mph78%29.95 "HgN/A
7:30 PM70 °FScattered clouds.1 mph73%29.95 "HgN/A
7:00 PM73 °FPassing clouds.2 mph57%29.92 "HgN/A
6:30 PM75 °FPassing clouds.5 mph54%29.92 "HgN/A
6:00 PM77 °FPassing clouds.3 mph44%29.92 "HgN/A
5:30 PM79 °FPassing clouds.3 mph42%29.92 "HgN/A
5:00 PM79 °FPassing clouds.3 mph42%29.92 "HgN/A
4:30 PM79 °FPassing clouds.2 mph42%29.92 "HgN/A
4:00 PM79 °FPassing clouds.3 mph39%29.92 "HgN/A
3:30 PM81 °FPassing clouds.No wind37%29.92 "HgN/A
3:00 PM79 °FPassing clouds.3 mph42%29.92 "HgN/A
2:30 PM79 °FPassing clouds.3 mph42%29.92 "HgN/A
2:00 PM79 °FPassing clouds.6 mph42%29.95 "HgN/A
1:30 PM79 °FPassing clouds.2 mph42%29.95 "HgN/A
1:00 PM77 °FPassing clouds.5 mph47%29.95 "HgN/A
12:30 PM77 °FPassing clouds.5 mph47%29.95 "HgN/A
12:00 PM77 °FPassing clouds.5 mph47%29.95 "HgN/A
11:30 AM75 °FPassing clouds.2 mph44%29.98 "HgN/A
11:00 AM75 °FPassing clouds.2 mph41%29.98 "HgN/A
10:30 AM75 °FPassing clouds.2 mph44%29.98 "HgN/A
10:00 AM73 °FPassing clouds.3 mph50%29.98 "HgN/A
9:30 AM73 °FPassing clouds.8 mph50%29.98 "HgN/A
9:00 AM72 °FPassing clouds.8 mph53%29.98 "HgN/A
8:30 AM70 °FPassing clouds.6 mph57%29.98 "HgN/A
8:00 AM66 °FPassing clouds.5 mph64%29.98 "HgN/A
7:30 AM63 °FPassing clouds.5 mph73%29.98 "HgN/A
7:00 AM61 °FPassing clouds.2 mph77%29.95 "HgN/A
6:30 AM61 °FPassing clouds.2 mph77%29.95 "HgN/A
6:00 AM64 °FPassing clouds.2 mph64%29.95 "HgN/A
5:30 AM64 °FPassing clouds.3 mph64%29.95 "HgN/A
5:00 AM66 °FPassing clouds.8 mph60%29.95 "HgN/A
4:30 AM64 °FPassing clouds.3 mph68%29.95 "HgN/A
4:00 AM66 °FPassing clouds.6 mph60%29.95 "HgN/A
3:30 AM64 °FPassing clouds.6 mph68%29.95 "HgN/A
3:00 AM66 °FPassing clouds.7 mph60%29.95 "HgN/A
2:30 AM66 °FPassing clouds.6 mph64%29.95 "HgN/A
2:00 AM66 °FPassing clouds.3 mph64%29.95 "HgN/A
Weather by CustomWeather, © 2014

See weather overviewHow to use our weather pages